{"data":{"norad_id":66985,"intl_designator":"2025-288AC","name":"STARLINK-36103","alt_names":[],"object_type":"PAYLOAD","status":"ACTIVE","operator":null,"country":"US","launch_date":"2025-12-08","launch_site_code":"AFETR","launch_vehicle":null,"mission":null,"orbit_class":"UNKNOWN","rcs_meters":null,"size_class":null,"mass_kg":null,"dimensions":null,"purposes":["comms"],"wikipedia_slug":null,"has_3d_model":false,"image_url":null,"decayed_at":null,"tle_current":{"epoch":"2026-05-25T04:33:03.804768Z","epoch_age_seconds":54718,"freshness":"FRESH","line1":"1 66985U 25288AC  26145.18962737  .00015307  00000+0  56446-3 0  9993","line2":"2 66985  43.0019 311.7154 0002577 272.8384  87.2173 15.27587552 26980","mean_motion":15.27587552,"eccentricity":0.0002577,"inclination_deg":43.0019,"raan_deg":311.7154,"arg_perigee_deg":272.8384,"mean_anomaly_deg":87.2173,"bstar":0.00056446,"rev_number":2698,"period_min":94.266282683089,"perigee_km":481.2583608985,"apogee_km":484.7946045575,"semimajor_km":6861.163482728,"source":"CELESTRAK","updated_at":"2026-05-25T13:38:21.428455Z"}}}